Location: Malvern Link
(52.1333°N, 2.3000°W)
Time: 07:10:46
(UTC+00:00)

Cosmos 2233 Rocket - Pass Details

Date: 18 September 2020
Orbit: 952 x 991 km, 82.9° (Epoch: 19 October)

Event Time Altitude Azimuth Distance (km) Brightness Sun altitude
Rises 18:42:28 0° 181° (S) 3,669 6.9 -4.9°
Reaches altitude 10° 18:44:59 10° 179° (S) 2,720 6.3 -5.2°
Maximum altitude 18:51:11 74° 97° (E) 1,011 4.0 -6.2°
Drops below altitude 10° 18:57:22 10° 13° (NNE) 2,711 6.3 -7.1°
Sets 18:59:53 0° 12° (NNE) 3,657 7.0 -7.5°
